| time (UTC) | temp F | wind direction | speed MPH | gust MPH | rain 1hr in | rain 24hr in | rain mn in | humidity % | barometer mb |
| 20260505225628 | 79 | 268 | 2.0 | 16.0 | 0.00 | 0.00 | 0.00 | 30 | 1009.9 |
| 20260505225117 | 80 | 334 | 4.0 | 16.0 | 0.00 | 0.00 | 0.00 | 29 | 1009.8 |
| 20260505224627 | 80 | 261 | 2.0 | 11.0 | 0.00 | 0.00 | 0.00 | 29 | 1009.9 |
| 20260505224115 | 80 | 311 | 2.0 | 10.0 | 0.00 | 0.00 | 0.00 | 29 | 1009.9 |
| 20260505223625 | 80 | 57 | 3.0 | 13.0 | 0.00 | 0.00 | 0.00 | 29 | 1009.9 |
| 20260505223134 | 80 | 305 | 5.0 | 15.0 | 0.00 | 0.00 | 0.00 | 29 | 1009.9 |
| 20260505222623 | 81 | 299 | 6.0 | 16.0 | 0.00 | 0.00 | 0.00 | 28 | 1010.0 |
| 20260505222152 | 80 | 291 | 4.0 | 14.0 | 0.00 | 0.00 | 0.00 | 29 | 1010.1 |
| 20260505221619 | 80 | 263 | 5.0 | 14.0 | 0.00 | 0.00 | 0.00 | 28 | 1010.0 |
| 20260505221128 | 80 | 296 | 4.0 | 14.0 | 0.00 | 0.00 | 0.00 | 28 | 1009.9 |
| 20260505220618 | 80 | 206 | 9.0 | 17.0 | 0.00 | 0.00 | 0.00 | 28 | 1009.9 |
| 20260505220143 | 80 | 320 | 4.0 | 17.0 | 0.00 | 0.00 | 0.00 | 29 | 1009.9 |
| 20260505215631 | 81 | 179 | 5.0 | 15.0 | 0.00 | 0.00 | 0.00 | 29 | 1009.8 |
| 20260505215119 | 81 | 240 | 3.0 | 14.0 | 0.00 | 0.00 | 0.00 | 30 | 1009.9 |
| 20260505214629 | 81 | 300 | 6.0 | 14.0 | 0.00 | 0.00 | 0.00 | 29 | 1009.8 |
| 20260505214118 | 81 | 270 | 4.0 | 17.0 | 0.00 | 0.00 | 0.00 | 30 | 1009.9 |
| 20260505213627 | 81 | 144 | 6.0 | 17.0 | 0.00 | 0.00 | 0.00 | 29 | 1009.9 |
| 20260505213136 | 81 | 310 | 5.0 | 15.0 | 0.00 | 0.00 | 0.00 | 29 | 1009.9 |
| 20260505212623 | 82 | 228 | 4.0 | 17.0 | 0.00 | 0.00 | 0.00 | 29 | 1009.8 |
| 20260505212131 | 82 | 265 | 7.0 | 17.0 | 0.00 | 0.00 | 0.00 | 29 | 1009.7 |
| 20260505211620 | 82 | 309 | 5.0 | 15.0 | 0.00 | 0.00 | 0.00 | 30 | 1009.6 |
| 20260505211149 | 83 | 44 | 6.0 | 15.0 | 0.00 | 0.00 | 0.00 | 29 | 1009.6 |
| 20260505210638 | 83 | 306 | 3.0 | 14.0 | 0.00 | 0.00 | 0.00 | 30 | 1009.7 |
| 20260505210146 | 83 | 294 | 6.0 | 16.0 | 0.00 | 0.00 | 0.00 | 29 | 1009.7 |
| 20260505205648 | 83 | 257 | 4.0 | 16.0 | 0.00 | 0.00 | 0.00 | 30 | 1009.7 |
| 20260505205135 | 83 | 224 | 6.0 | 18.0 | 0.00 | 0.00 | 0.00 | 30 | 1009.6 |
| 20260505204623 | 83 | 245 | 8.0 | 18.0 | 0.00 | 0.00 | 0.00 | 30 | 1009.8 |
| 20260505204132 | 83 | 270 | 5.0 | 18.0 | 0.00 | 0.00 | 0.00 | 30 | 1009.6 |
| 20260505203620 | 83 | 241 | 7.0 | 17.0 | 0.00 | 0.00 | 0.00 | 31 | 1009.6 |
| 20260505203129 | 84 | 201 | 4.0 | 14.0 | 0.00 | 0.00 | 0.00 | 33 | 1009.7 |
| 20260505202616 | 83 | 249 | 6.0 | 14.0 | 0.00 | 0.00 | 0.00 | 30 | 1009.7 |
| 20260505202125 | 83 | 216 | 3.0 | 23.0 | 0.00 | 0.00 | 0.00 | 32 | 1009.6 |
| 20260505201615 | 83 | 151 | 5.0 | 23.0 | 0.00 | 0.00 | 0.00 | 32 | 1009.6 |
| 20260505201123 | 83 | 227 | 5.0 | 19.0 | 0.00 | 0.00 | 0.00 | 32 | 1009.7 |
| 20260505200632 | 83 | 224 | 4.0 | 23.0 | 0.00 | 0.00 | 0.00 | 31 | 1009.8 |
| 20260505200121 | 82 | 200 | 7.0 | 23.0 | 0.00 | 0.00 | 0.00 | 32 | 1009.8 |
| 20260505195630 | 82 | 247 | 8.0 | 18.0 | 0.00 | 0.00 | 0.00 | 32 | 1010.0 |
| 20260505195140 | 83 | 165 | 5.0 | 15.0 | 0.00 | 0.00 | 0.00 | 32 | 1009.9 |
| 20260505194647 | 83 | 232 | 4.0 | 18.0 | 0.00 | 0.00 | 0.00 | 32 | 1009.9 |
| 20260505194115 | 83 | 267 | 4.0 | 18.0 | 0.00 | 0.00 | 0.00 | 33 | 1009.9 |
| 20260505193620 | 83 | 338 | 5.0 | 19.0 | 0.00 | 0.00 | 0.00 | 32 | 1010.0 |
| 20260505193127 | 83 | 183 | 7.0 | 23.0 | 0.00 | 0.00 | 0.00 | 33 | 1010.1 |
| 20260505192617 | 83 | 20 | 5.0 | 24.0 | 0.00 | 0.00 | 0.00 | 30 | 1010.2 |
| 20260505192145 | 83 | 170 | 10.0 | 24.0 | 0.00 | 0.00 | 0.00 | 32 | 1010.2 |
| 20260505191633 | 83 | 216 | 8.0 | 23.0 | 0.00 | 0.00 | 0.00 | 33 | 1010.3 |
| 20260505191121 | 84 | 225 | 13.0 | 23.0 | 0.00 | 0.00 | 0.00 | 32 | 1010.2 |
| 20260505190631 | 84 | 126 | 5.0 | 19.0 | 0.00 | 0.00 | 0.00 | 33 | 1010.4 |
| 20260505190119 | 84 | 120 | 6.0 | 19.0 | 0.00 | 0.00 | 0.00 | 33 | 1010.3 |
| 20260505185627 | 84 | 233 | 4.0 | 11.0 | 0.00 | 0.00 | 0.00 | 34 | 1010.5 |
| 20260505185117 | 84 | 270 | 3.0 | 11.0 | 0.00 | 0.00 | 0.00 | 32 | 1010.6 |
| 20260505184625 | 84 | 334 | 4.0 | 20.0 | 0.00 | 0.00 | 0.00 | 33 | 1010.6 |
| 20260505184154 | 83 | 313 | 4.0 | 20.0 | 0.00 | 0.00 | 0.00 | 35 | 1010.5 |
| 20260505183621 | 83 | 224 | 8.0 | 17.0 | 0.00 | 0.00 | 0.00 | 36 | 1010.7 |
| 20260505183130 | 83 | 255 | 5.0 | 17.0 | 0.00 | 0.00 | 0.00 | 35 | 1010.7 |
| 20260505182639 | 83 | 249 | 4.0 | 17.0 | 0.00 | 0.00 | 0.00 | 36 | 1011.0 |
| 20260505182126 | 83 | 214 | 5.0 | 14.0 | 0.00 | 0.00 | 0.00 | 35 | 1011.0 |
| 20260505181616 | 83 | 57 | 5.0 | 14.0 | 0.00 | 0.00 | 0.00 | 35 | 1010.9 |
| 20260505181121 | 83 | 222 | 5.0 | 12.0 | 0.00 | 0.00 | 0.00 | 35 | 1011.1 |
| 20260505180630 | 83 | 181 | 4.0 | 13.0 | 0.00 | 0.00 | 0.00 | 36 | 1011.2 |
| 20260505180118 | 83 | 182 | 4.0 | 13.0 | 0.00 | 0.00 | 0.00 | 35 | 1011.1 |
| 20260505175627 | 83 | 220 | 4.0 | 14.0 | 0.00 | 0.00 | 0.00 | 36 | 1011.2 |
| 20260505175115 | 83 | 301 | 5.0 | 14.0 | 0.00 | 0.00 | 0.00 | 35 | 1011.2 |
| 20260505174623 | 83 | 305 | 5.0 | 14.0 | 0.00 | 0.00 | 0.00 | 35 | 1011.3 |
| 20260505174132 | 83 | 174 | 4.0 | 16.0 | 0.00 | 0.00 | 0.00 | 35 | 1011.3 |
| 20260505173641 | 83 | 294 | 8.0 | 17.0 | 0.00 | 0.00 | 0.00 | 33 | 1011.3 |
| 20260505173128 | 82 | 216 | 6.0 | 17.0 | 0.00 | 0.00 | 0.00 | 33 | 1011.4 |
| 20260505172637 | 82 | 234 | 3.0 | 12.0 | 0.00 | 0.00 | 0.00 | 37 | 1011.5 |
| 20260505172124 | 82 | 176 | 4.0 | 14.0 | 0.00 | 0.00 | 0.00 | 34 | 1011.5 |
| 20260505171613 | 82 | 55 | 5.0 | 15.0 | 0.00 | 0.00 | 0.00 | 35 | 1011.5 |
| 20260505171122 | 83 | 235 | 5.0 | 15.0 | 0.00 | 0.00 | 0.00 | 34 | 1011.7 |
| 20260505170631 | 82 | 251 | 6.0 | 14.0 | 0.00 | 0.00 | 0.00 | 35 | 1011.6 |
| 20260505170140 | 82 | 311 | 2.0 | 20.0 | 0.00 | 0.00 | 0.00 | 37 | 1011.6 |
| 20260505165644 | 82 | 250 | 8.0 | 20.0 | 0.00 | 0.00 | 0.00 | 38 | 1011.7 |
| 20260505165130 | 82 | 291 | 4.0 | 13.0 | 0.00 | 0.00 | 0.00 | 38 | 1011.7 |
| 20260505164620 | 82 | 143 | 4.0 | 15.0 | 0.00 | 0.00 | 0.00 | 39 | 1011.8 |
| 20260505164129 | 81 | 338 | 6.0 | 15.0 | 0.00 | 0.00 | 0.00 | 37 | 1011.9 |
| 20260505163619 | 81 | 280 | 5.0 | 14.0 | 0.00 | 0.00 | 0.00 | 39 | 1012.1 |
| 20260505163128 | 82 | 220 | 4.0 | 10.0 | 0.00 | 0.00 | 0.00 | 39 | 1012.1 |
| 20260505162616 | 81 | 278 | 3.0 | 10.0 | 0.00 | 0.00 | 0.00 | 40 | 1012.1 |
| 20260505162125 | 82 | 26 | 3.0 | 10.0 | 0.00 | 0.00 | 0.00 | 41 | 1012.2 |
| 20260505161654 | 82 | 18 | 1.0 | 8.0 | 0.00 | 0.00 | 0.00 | 42 | 1012.3 |
| 20260505161122 | 82 | 317 | 1.0 | 18.0 | 0.00 | 0.00 | 0.00 | 38 | 1012.3 |
| 20260505160630 | 81 | 297 | 7.0 | 18.0 | 0.00 | 0.00 | 0.00 | 36 | 1012.3 |
| 20260505160119 | 80 | 284 | 4.0 | 13.0 | 0.00 | 0.00 | 0.00 | 38 | 1012.3 |
| 20260505153129 | 80 | 313 | 3.0 | 14.0 | 0.00 | 0.00 | 0.00 | 42 | 1012.4 |
| 20260505152617 | 79 | 261 | 3.0 | 13.0 | 0.00 | 0.00 | 0.00 | 41 | 1012.4 |
| 20260505152122 | 80 | 165 | 2.0 | 10.0 | 0.00 | 0.00 | 0.00 | 42 | 1012.4 |
| 20260505151652 | 79 | 224 | 4.0 | 11.0 | 0.00 | 0.00 | 0.00 | 44 | 1012.4 |
| 20260505151119 | 78 | 261 | 2.0 | 11.0 | 0.00 | 0.00 | 0.00 | 41 | 1012.3 |
| 20260505150629 | 79 | 322 | 2.0 | 11.0 | 0.00 | 0.00 | 0.00 | 43 | 1012.4 |
| 20260505150138 | 78 | 286 | 4.0 | 10.0 | 0.00 | 0.00 | 0.00 | 42 | 1012.4 |
| 20260505140630 | 75 | 214 | 2.0 | 9.0 | 0.00 | 0.00 | 0.00 | 45 | 1012.6 |
| 20260505140119 | 76 | 278 | 3.0 | 9.0 | 0.00 | 0.00 | 0.00 | 46 | 1012.6 |
| 20260505130117 | 71 | 274 | 1.0 | 10.0 | 0.00 | 0.00 | 0.00 | 48 | 1013.1 |
| 20260505124640 | 69 | 278 | 3.0 | 6.0 | 0.00 | 0.00 | 0.00 | 50 | 1013.1 |
| 20260505124121 | 68 | 165 | 1.0 | 6.0 | 0.00 | 0.00 | 0.00 | 52 | 1013.0 |
| 20260505123630 | 68 | 165 | 1.0 | 6.0 | 0.00 | 0.00 | 0.00 | 52 | 1012.9 |
| 20260505123118 | 67 | 165 | 1.0 | 6.0 | 0.00 | 0.00 | 0.00 | 54 | 1012.8 |
| 20260505122627 | 66 | 165 | 0.0 | 9.0 | 0.00 | 0.00 | 0.00 | 55 | 1012.7 |
| 20260505122116 | 65 | 165 | 4.0 | 9.0 | 0.00 | 0.00 | 0.00 | 56 | 1012.8 |
| 20260505121624 | 64 | 165 | 2.0 | 8.0 | 0.00 | 0.00 | 0.00 | 58 | 1012.9 |
| 20260505121113 | 63 | 165 | 1.0 | 4.0 | 0.00 | 0.00 | 0.00 | 60 | 1012.8 |
| 20260505120642 | 63 | 165 | 1.0 | 4.0 | 0.00 | 0.00 | 0.00 | 60 | 1012.8 |
| 20260505120129 | 62 | 165 | 1.0 | 4.0 | 0.00 | 0.00 | 0.00 | 60 | 1012.8 |
| 20260505115617 | 62 | 165 | 1.0 | 3.0 | 0.00 | 0.00 | 0.00 | 61 | 1012.9 |
| 20260505115126 | 62 | 193 | 1.0 | 3.0 | 0.00 | 0.00 | 0.00 | 61 | 1012.8 |
| 20260505114615 | 61 | 263 | 0.0 | 3.0 | 0.00 | 0.00 | 0.00 | 61 | 1012.7 |
| 20260505114123 | 61 | 289 | 1.0 | 3.0 | 0.00 | 0.00 | 0.00 | 62 | 1012.6 |
| 20260505113633 | 61 | 318 | 1.0 | 3.0 | 0.00 | 0.00 | 0.00 | 63 | 1012.6 |
| 20260505113120 | 60 | 262 | 1.0 | 5.0 | 0.00 | 0.00 | 0.00 | 63 | 1012.6 |
| 20260505112628 | 60 | 260 | 1.0 | 5.0 | 0.00 | 0.00 | 0.00 | 63 | 1012.6 |
| 20260505112118 | 60 | 243 | 1.0 | 3.0 | 0.00 | 0.00 | 0.00 | 64 | 1012.5 |
| 20260505111626 | 59 | 4 | 0.0 | 5.0 | 0.00 | 0.00 | 0.00 | 64 | 1012.5 |
| 20260505111115 | 59 | 276 | 1.0 | 5.0 | 0.00 | 0.00 | 0.00 | 64 | 1012.4 |
| 20260505110624 | 59 | 275 | 1.0 | 4.0 | 0.00 | 0.00 | 0.00 | 65 | 1012.4 |
| 20260505110129 | 59 | 275 | 1.0 | 3.0 | 0.00 | 0.00 | 0.00 | 65 | 1012.3 |
| 20260505102138 | 58 | 249 | 1.0 | 5.0 | 0.00 | 0.00 | 0.00 | 66 | 1012.1 |
| 20260505101627 | 58 | 295 | 2.0 | 5.0 | 0.00 | 0.00 | 0.00 | 67 | 1012.1 |
| 20260505101117 | 58 | 246 | 1.0 | 6.0 | 0.00 | 0.00 | 0.00 | 67 | 1012.0 |
| 20260505100625 | 58 | 299 | 2.0 | 6.0 | 0.00 | 0.00 | 0.00 | 67 | 1012.0 |
| 20260505100115 | 58 | 317 | 0.0 | 3.0 | 0.00 | 0.00 | 0.00 | 67 | 1011.6 |
| 20260505095622 | 58 | 322 | 1.0 | 5.0 | 0.00 | 0.00 | 0.00 | 66 | 1011.7 |
| 20260505095131 | 58 | 246 | 1.0 | 5.0 | 0.00 | 0.00 | 0.00 | 66 | 1011.6 |
| 20260505094619 | 58 | 245 | 0.0 | 3.0 | 0.00 | 0.00 | 0.00 | 66 | 1011.7 |
| 20260505094148 | 58 | 261 | 0.0 | 3.0 | 0.00 | 0.00 | 0.00 | 66 | 1011.7 |
| 20260505093616 | 58 | 236 | 1.0 | 4.0 | 0.00 | 0.00 | 0.00 | 66 | 1011.6 |
| 20260505093141 | 58 | 266 | 1.0 | 4.0 | 0.00 | 0.00 | 0.00 | 66 | 1011.6 |
| 20260505092630 | 58 | 242 | 1.0 | 3.0 | 0.00 | 0.00 | 0.00 | 66 | 1011.7 |
| 20260505092119 | 58 | 301 | 0.0 | 5.0 | 0.00 | 0.00 | 0.00 | 66 | 1011.6 |
| 20260505091629 | 58 | 286 | 1.0 | 5.0 | 0.00 | 0.00 | 0.00 | 66 | 1011.6 |
| 20260505091117 | 58 | 295 | 0.0 | 4.0 | 0.00 | 0.00 | 0.00 | 66 | 1011.6 |
| 20260505090646 | 58 | 273 | 1.0 | 4.0 | 0.00 | 0.00 | 0.00 | 66 | 1011.7 |
| 20260505090114 | 58 | 252 | 0.0 | 3.0 | 0.00 | 0.00 | 0.00 | 66 | 1011.7 |
| 20260505085622 | 58 | 230 | 1.0 | 3.0 | 0.00 | 0.00 | 0.00 | 66 | 1011.6 |
| 20260505085131 | 58 | 226 | 0.0 | 5.0 | 0.00 | 0.00 | 0.00 | 66 | 1011.7 |
| 20260505084620 | 59 | 244 | 0.0 | 5.0 | 0.00 | 0.00 | 0.00 | 65 | 1011.6 |
| 20260505084149 | 59 | 235 | 1.0 | 3.0 | 0.00 | 0.00 | 0.00 | 64 | 1011.6 |
| 20260505083616 | 59 | 297 | 0.0 | 3.0 | 0.00 | 0.00 | 0.00 | 64 | 1011.7 |
| 20260505083124 | 59 | 243 | 1.0 | 4.0 | 0.00 | 0.00 | 0.00 | 64 | 1011.7 |
| 20260505082614 | 59 | 273 | 2.0 | 4.0 | 0.00 | 0.00 | 0.00 | 64 | 1011.6 |
| 20260505082123 | 59 | 251 | 1.0 | 4.0 | 0.00 | 0.00 | 0.00 | 64 | 1011.6 |
| 20260505081653 | 59 | 290 | 1.0 | 6.0 | 0.00 | 0.00 | 0.00 | 64 | 1011.6 |
| 20260505081120 | 59 | 234 | 1.0 | 6.0 | 0.00 | 0.00 | 0.00 | 64 | 1011.6 |
| 20260505080642 | 59 | 253 | 3.0 | 5.0 | 0.00 | 0.00 | 0.00 | 64 | 1011.7 |
| 20260505080130 | 59 | 201 | 1.0 | 4.0 | 0.00 | 0.00 | 0.00 | 64 | 1011.6 |
| 20260505075617 | 59 | 253 | 1.0 | 4.0 | 0.00 | 0.00 | 0.00 | 65 | 1011.5 |
| 20260505075146 | 59 | 233 | 0.0 | 3.0 | 0.00 | 0.00 | 0.00 | 65 | 1011.6 |
| 20260505074615 | 59 | 210 | 1.0 | 3.0 | 0.00 | 0.00 | 0.00 | 65 | 1011.6 |
| 20260505074123 | 59 | 249 | 0.0 | 2.0 | 0.00 | 0.00 | 0.00 | 65 | 1011.5 |
| 20260505073632 | 59 | 280 | 1.0 | 2.0 | 0.00 | 0.00 | 0.00 | 66 | 1011.4 |
| 20260505073118 | 58 | 224 | 0.0 | 1.0 | 0.00 | 0.00 | 0.00 | 66 | 1011.3 |
| 20260505072626 | 58 | 330 | 0.0 | 1.0 | 0.00 | 0.00 | 0.00 | 66 | 1011.4 |
| 20260505072115 | 58 | 270 | 0.0 | 0.0 | 0.00 | 0.00 | 0.00 | 66 | 1011.4 |
| 20260505071623 | 59 | 270 | 0.0 | 0.0 | 0.00 | 0.00 | 0.00 | 66 | 1011.3 |
| 20260505071128 | 59 | 241 | 0.0 | 0.0 | 0.00 | 0.00 | 0.00 | 65 | 1011.2 |
| 20260505070618 | 59 | 228 | 0.0 | 0.0 | 0.00 | 0.00 | 0.00 | 65 | 1011.1 |
| 20260505070127 | 59 | 250 | 0.0 | 0.0 | 0.00 | 0.00 | 0.00 | 65 | 1011.2 |
| 20260505065616 | 59 | 305 | 0.0 | 0.0 | 0.00 | 0.00 | 0.00 | 65 | 1011.1 |
| 20260505065125 | 59 | 305 | 0.0 | 0.0 | 0.00 | 0.00 | 0.00 | 65 | 1011.2 |
| 20260505064650 | 59 | 305 | 0.0 | 0.0 | 0.00 | 0.00 | 0.00 | 64 | 1011.1 |
| 20260505064118 | 60 | 305 | 0.0 | 1.0 | 0.00 | 0.00 | 0.00 | 64 | 1011.2 |
| 20260505063646 | 60 | 308 | 0.0 | 2.0 | 0.00 | 0.00 | 0.00 | 63 | 1011.2 |
| 20260505063134 | 60 | 307 | 0.0 | 2.0 | 0.00 | 0.00 | 0.00 | 63 | 1011.3 |
| 20260505062622 | 60 | 227 | 0.0 | 2.0 | 0.00 | 0.00 | 0.00 | 63 | 1011.3 |
| 20260505062152 | 60 | 314 | 0.0 | 1.0 | 0.00 | 0.00 | 0.00 | 63 | 1011.3 |
| 20260505061638 | 60 | 276 | 0.0 | 1.0 | 0.00 | 0.00 | 0.00 | 62 | 1011.3 |
| 20260505061126 | 60 | 233 | 0.0 | 4.0 | 0.00 | 0.00 | 0.00 | 63 | 1011.2 |
| 20260505060616 | 61 | 259 | 0.0 | 4.0 | 0.00 | 0.00 | 0.00 | 62 | 1011.3 |
| 20260505060124 | 61 | 313 | 0.0 | 0.0 | 0.00 | 0.00 | 0.00 | 62 | 1011.3 |
| 20260505055613 | 61 | 313 | 0.0 | 0.0 | 0.00 | 0.00 | 0.00 | 61 | 1011.2 |
| 20260505055121 | 61 | 313 | 0.0 | 2.0 | 0.00 | 0.00 | 0.00 | 61 | 1011.4 |
| 20260505054630 | 61 | 313 | 0.0 | 2.0 | 0.00 | 0.00 | 0.00 | 61 | 1011.4 |
| 20260505054119 | 61 | 255 | 0.0 | 2.0 | 0.00 | 0.00 | 0.00 | 61 | 1011.4 |
| 20260505053629 | 61 | 218 | 0.0 | 2.0 | 0.00 | 0.00 | 0.00 | 60 | 1011.4 |
| 20260505053116 | 62 | 306 | 0.0 | 3.0 | 0.00 | 0.00 | 0.00 | 60 | 1011.4 |
| 20260505052625 | 62 | 306 | 1.0 | 3.0 | 0.00 | 0.00 | 0.00 | 59 | 1011.4 |
| 20260505052115 | 62 | 243 | 0.0 | 2.0 | 0.00 | 0.00 | 0.00 | 59 | 1011.4 |
| 20260505051620 | 62 | 209 | 0.0 | 3.0 | 0.00 | 0.00 | 0.00 | 59 | 1011.5 |
| 20260505051129 | 62 | 295 | 1.0 | 3.0 | 0.00 | 0.00 | 0.00 | 59 | 1011.6 |
| 20260505050618 | 62 | 294 | 0.0 | 3.0 | 0.00 | 0.00 | 0.00 | 58 | 1011.6 |
| 20260505050126 | 62 | 281 | 1.0 | 3.0 | 0.00 | 0.00 | 0.00 | 59 | 1011.5 |
| 20260505041642 | 61 | 241 | 0.0 | 2.0 | 0.00 | 0.00 | 0.00 | 59 | 1011.2 |
| 20260505041127 | 62 | 280 | 0.0 | 0.0 | 0.00 | 0.00 | 0.00 | 58 | 1011.2 |
| 20260505040618 | 62 | 292 | 0.0 | 1.0 | 0.00 | 0.00 | 0.00 | 58 | 1011.3 |
| 20260505040143 | 62 | 271 | 0.0 | 2.0 | 0.00 | 0.00 | 0.00 | 57 | 1011.3 |
| 20260505035648 | 62 | 270 | 0.0 | 2.0 | 0.00 | 0.00 | 0.00 | 57 | 1011.3 |
| 20260505035114 | 62 | 322 | 0.0 | 0.0 | 0.00 | 0.00 | 0.00 | 56 | 1011.2 |
| 20260505034623 | 62 | 322 | 0.0 | 0.0 | 0.00 | 0.00 | 0.00 | 57 | 1011.4 |
| 20260505034131 | 62 | 322 | 0.0 | 0.0 | 0.00 | 0.00 | 0.00 | 57 | 1011.3 |
| 20260505033620 | 62 | 322 | 0.0 | 0.0 | 0.00 | 0.00 | 0.00 | 56 | 1011.2 |
| 20260505033129 | 62 | 322 | 0.0 | 0.0 | 0.00 | 0.00 | 0.00 | 56 | 1011.3 |
| 20260505032617 | 62 | 322 | 0.0 | 0.0 | 0.00 | 0.00 | 0.00 | 55 | 1011.3 |
| 20260505032126 | 63 | 322 | 0.0 | 1.0 | 0.00 | 0.00 | 0.00 | 54 | 1011.2 |
| 20260505031615 | 63 | 322 | 0.0 | 1.0 | 0.00 | 0.00 | 0.00 | 54 | 1011.2 |
| 20260505031124 | 63 | 317 | 0.0 | 2.0 | 0.00 | 0.00 | 0.00 | 54 | 1011.2 |
| 20260505030632 | 63 | 320 | 1.0 | 2.0 | 0.00 | 0.00 | 0.00 | 54 | 1011.3 |
| 20260505030141 | 63 | 260 | 0.0 | 2.0 | 0.00 | 0.00 | 0.00 | 54 | 1011.2 |
| 20260505025629 | 63 | 95 | 0.0 | 1.0 | 0.00 | 0.00 | 0.00 | 54 | 1011.2 |
| 20260505025117 | 63 | 233 | 0.0 | 0.0 | 0.00 | 0.00 | 0.00 | 53 | 1011.2 |
| 20260505024646 | 63 | 253 | 0.0 | 0.0 | 0.00 | 0.00 | 0.00 | 53 | 1011.3 |
| 20260505024115 | 64 | 251 | 0.0 | 3.0 | 0.00 | 0.00 | 0.00 | 52 | 1011.3 |
| 20260505023619 | 64 | 247 | 0.0 | 3.0 | 0.00 | 0.00 | 0.00 | 52 | 1011.3 |
| 20260505023128 | 64 | 275 | 0.0 | 2.0 | 0.00 | 0.00 | 0.00 | 51 | 1011.3 |
| 20260505022638 | 64 | 165 | 0.0 | 2.0 | 0.00 | 0.00 | 0.00 | 51 | 1011.3 |
| 20260505022146 | 65 | 261 | 0.0 | 3.0 | 0.00 | 0.00 | 0.00 | 51 | 1011.2 |
| 20260505021614 | 65 | 255 | 1.0 | 3.0 | 0.00 | 0.00 | 0.00 | 50 | 1011.1 |
| 20260505021122 | 65 | 187 | 0.0 | 1.0 | 0.00 | 0.00 | 0.00 | 50 | 1011.2 |
| 20260505020631 | 65 | 277 | 0.0 | 2.0 | 0.00 | 0.00 | 0.00 | 49 | 1011.2 |
| 20260505020139 | 66 | 165 | 0.0 | 3.0 | 0.00 | 0.00 | 0.00 | 49 | 1011.3 |
| 20260505015628 | 65 | 165 | 1.0 | 3.0 | 0.00 | 0.00 | 0.00 | 49 | 1011.2 |
| 20260505015117 | 65 | 165 | 1.0 | 3.0 | 0.00 | 0.00 | 0.00 | 48 | 1011.1 |
| 20260505014625 | 66 | 165 | 0.0 | 4.0 | 0.00 | 0.00 | 0.00 | 48 | 1011.0 |
| 20260505014114 | 66 | 165 | 1.0 | 4.0 | 0.00 | 0.00 | 0.00 | 47 | 1011.0 |
| 20260505013623 | 66 | 165 | 1.0 | 5.0 | 0.00 | 0.00 | 0.00 | 47 | 1010.9 |
| 20260505013130 | 67 | 165 | 2.0 | 5.0 | 0.00 | 0.00 | 0.00 | 46 | 1010.8 |
| 20260505012619 | 67 | 165 | 1.0 | 5.0 | 0.00 | 0.00 | 0.00 | 46 | 1010.8 |
| 20260505012127 | 67 | 165 | 1.0 | 5.0 | 0.00 | 0.00 | 0.00 | 46 | 1010.8 |
| 20260505011617 | 67 | 165 | 1.0 | 6.0 | 0.00 | 0.00 | 0.00 | 46 | 1010.8 |
| 20260505011121 | 67 | 165 | 2.0 | 6.0 | 0.00 | 0.00 | 0.00 | 45 | 1010.8 |
| 20260505010629 | 68 | 165 | 1.0 | 5.0 | 0.00 | 0.00 | 0.00 | 45 | 1010.7 |
| 20260505010119 | 68 | 165 | 0.0 | 5.0 | 0.00 | 0.00 | 0.00 | 45 | 1010.7 |
| 20260505005626 | 68 | 165 | 1.0 | 6.0 | 0.00 | 0.00 | 0.00 | 44 | 1010.7 |
| 20260505005114 | 68 | 165 | 2.0 | 6.0 | 0.00 | 0.00 | 0.00 | 44 | 1010.7 |
| 20260505004623 | 69 | 165 | 0.0 | 5.0 | 0.00 | 0.00 | 0.00 | 43 | 1010.6 |
| 20260505004152 | 69 | 165 | 2.0 | 5.0 | 0.00 | 0.00 | 0.00 | 43 | 1010.6 |
| 20260505003620 | 69 | 165 | 1.0 | 6.0 | 0.00 | 0.00 | 0.00 | 42 | 1010.6 |
| 20260505003128 | 70 | 211 | 1.0 | 9.0 | 0.00 | 0.00 | 0.00 | 42 | 1010.5 |
| 20260505002617 | 70 | 165 | 0.0 | 9.0 | 0.00 | 0.00 | 0.00 | 41 | 1010.6 |
| 20260505002126 | 70 | 165 | 3.0 | 8.0 | 0.00 | 0.00 | 0.00 | 41 | 1010.6 |
| 20260505001615 | 70 | 233 | 3.0 | 8.0 | 0.00 | 0.00 | 0.00 | 41 | 1010.6 |
| 20260505001123 | 70 | 232 | 2.0 | 9.0 | 0.00 | 0.00 | 0.00 | 40 | 1010.6 |
| 20260505000631 | 70 | 227 | 3.0 | 10.0 | 0.00 | 0.00 | 0.00 | 40 | 1010.5 |
| 20260505000120 | 70 | 165 | 4.0 | 12.0 | 0.00 | 0.00 | 0.00 | 40 | 1010.5 |
| 20260504235628 | 70 | 249 | 4.0 | 12.0 | 0.00 | 0.00 | 0.00 | 40 | 1010.5 |
| 20260504235116 | 70 | 199 | 2.0 | 13.0 | 0.00 | 0.00 | 0.00 | 40 | 1010.4 |
| 20260504234644 | 71 | 263 | 4.0 | 13.0 | 0.00 | 0.00 | 0.00 | 40 | 1010.4 |
| 20260504234127 | 71 | 232 | 2.0 | 12.0 | 0.00 | 0.00 | 0.00 | 39 | 1010.4 |
| 20260504233616 | 71 | 229 | 2.0 | 10.0 | 0.00 | 0.00 | 0.00 | 38 | 1010.4 |
| 20260504233124 | 71 | 253 | 3.0 | 12.0 | 0.00 | 0.00 | 0.00 | 38 | 1010.4 |
| 20260504232613 | 72 | 272 | 5.0 | 12.0 | 0.00 | 0.00 | 0.00 | 38 | 1010.4 |
| 20260504232122 | 72 | 216 | 5.0 | 18.0 | 0.00 | 0.00 | 0.00 | 37 | 1010.5 |
| 20260504231630 | 72 | 22 | 4.0 | 18.0 | 0.00 | 0.00 | 0.00 | 37 | 1010.4 |
| 20260504231118 | 72 | 259 | 4.0 | 13.0 | 0.00 | 0.00 | 0.00 | 37 | 1010.4 |
| 20260504230627 | 73 | 206 | 4.0 | 13.0 | 0.00 | 0.00 | 0.00 | 36 | 1010.3 |
| 20260504230117 | 73 | 197 | 3.0 | 10.0 | 0.00 | 0.00 | 0.00 | 37 | 1010.4 |